Location: Carrières
(48.9495°N, 2.0407°E)
Time: 18:36:54
(UTC+00:00)

Cosmos 1606 Rocket - Pass Details

Date: 21 June 2024
Orbit: 599 x 628 km, 82.5° (Epoch: 15 July)

Event Time Altitude Azimuth Distance (km) Brightness Sun altitude
Rises 02:12:24 0° 343° (NNW) 2,921 7.7 -11.3°
Reaches altitude 10° 02:14:46 10° 336° (NNW) 2,005 6.6 -11.1°
Maximum altitude 02:18:52 38° 269° (W) 951 4.2 -10.7°
Enters shadow 02:22:14 14° 205° (SSW) 1,725 5.2 -10.4°
